DW8004 Weather Reports


time (UTC)temp
C
wind
direction
speed
KPH
gust
KPH
rain 1hr
cm
rain 24hr
cm
rain mn
cm
humidity
%
barometer
mb
20260831003045 17 211 0.0 0.0 0.00 0.00 0.00 88 1016.5
20260831001518 17 278 0.0 0.0 0.00 0.00 0.00 89 1016.1
20260831000023 17 223 0.0 0.0 0.00 0.00 0.00 89 1015.9
20260830234530 17 231 0.0 0.0 0.00 0.00 0.00 88 1015.6
20260830233004 17 244 0.0 0.0 0.00 0.00 0.00 86 1015.9
20260830231549 18 209 0.0 0.0 0.00 0.00 0.00 86 1016.1
20260830230030 18 229 0.0 0.0 0.00 0.00 0.00 84 1016.0
20260830224632 18 269 0.0 0.0 0.00 0.00 0.00 84 1016.2
20260830223104 19 229 0.0 0.0 0.00 0.00 0.00 85 1016.0
20260830221551 19 227 0.0 0.0 0.00 0.00 0.00 84 1016.1
20260830220053 20 227 0.0 0.0 0.00 0.00 0.00 83 1016.0
20260830214504 20 210 0.0 0.0 0.00 0.00 0.00 83 1015.9
20260830213030 20 192 0.0 0.0 0.00 0.00 0.00 81 1015.9
20260830211634 20 248 0.0 0.0 0.00 0.00 0.00 79 1015.9
20260830210046 21 229 0.0 0.0 0.00 0.00 0.00 79 1016.0
20260830204523 21 244 0.0 0.0 0.00 0.00 0.00 77 1016.2
20260830203034 21 232 0.0 0.0 0.00 0.00 0.00 77 1016.2
20260830201512 21 247 0.0 0.0 0.00 0.00 0.00 78 1016.3
20260830194516 20 232 0.0 0.0 0.00 0.00 0.00 79 1016.6
20260830193037 21 213 0.0 0.0 0.00 0.00 0.00 77 1016.6
20260830191619 21 232 0.0 0.0 0.00 0.00 0.00 76 1016.9
20260830190052 22 249 0.0 0.0 0.00 0.00 0.00 72 1016.8
20260830184513 22 216 0.0 0.0 0.00 0.00 0.00 70 1017.0
20260830183052 22 238 0.0 0.0 0.00 0.00 0.00 69 1017.1
20260830181548 22 315 0.0 0.0 0.00 0.00 0.00 70 1017.4
20260830180043 21 17 0.0 0.0 0.00 0.00 0.00 70 1017.4
20260830174529 21 238 0.0 0.0 0.00 0.00 0.00 72 1017.6
20260830173058 21 187 0.0 0.0 0.00 0.00 0.00 69 1017.9
20260830171549 21 235 0.0 0.0 0.00 0.00 0.00 67 1018.1
20260830170040 21 261 0.0 0.0 0.00 0.00 0.00 74 1018.0
20260830164534 21 236 0.0 0.0 0.00 0.00 0.00 74 1018.2
20260830163013 21 250 0.0 0.0 0.00 0.00 0.00 69 1018.3
20260830161603 21 136 0.0 0.0 0.00 0.00 0.00 71 1018.4
20260830160043 21 232 0.0 0.0 0.00 0.00 0.00 72 1018.6
20260830154539 20 234 0.0 0.0 0.00 0.00 0.00 72 1018.9
20260830153002 20 247 0.0 0.0 0.00 0.00 0.00 75 1019.1
20260830151608 18 247 0.0 0.0 0.00 0.00 0.00 76 1019.3
20260830150046 18 209 0.0 0.0 0.00 0.00 0.00 79 1019.4
20260830144543 17 215 0.0 0.0 0.00 0.00 0.00 84 1019.3
20260830143028 17 95 0.0 0.0 0.00 0.00 0.00 86 1019.3
20260830141607 18 95 0.0 0.0 0.00 0.00 0.00 85 1019.5
20260830134549 18 95 0.0 0.0 0.00 0.00 0.00 78 1019.5
20260830133022 18 93 0.0 0.0 0.00 0.00 0.00 80 1019.6
20260830131550 17 94 0.0 0.0 0.00 0.00 0.00 81 1019.8
20260830130013 16 94 0.0 0.0 0.00 0.00 0.00 90 1019.8
20260830124530 15 92 0.0 0.0 0.00 0.00 0.00 93 1019.9
20260830123054 15 92 0.0 0.0 0.00 0.00 0.00 94 1019.8
20260830121554 15 92 0.0 0.0 0.00 0.00 0.00 94 1020.0
20260830120119 15 91 0.0 0.0 0.00 0.00 0.00 94 1020.0
20260830114552 14 91 0.0 0.0 0.00 0.00 0.00 94 1020.1
20260830113025 13 91 0.0 0.0 0.00 0.00 0.00 95 1020.4
20260830111602 13 91 0.0 0.0 0.00 0.00 0.00 96 1020.4
20260830110106 12 91 0.0 0.0 0.00 0.00 0.00 96 1020.4
20260830104512 12 91 0.0 0.0 0.00 0.00 0.00 95 1020.3
20260830103103 12 91 0.0 0.0 0.00 0.00 0.00 95 1020.4
20260830101620 12 91 0.0 0.0 0.00 0.00 0.00 96 1020.3
20260830100010 12 91 0.0 0.0 0.00 0.00 0.00 96 1020.5
20260830094556 12 91 0.0 0.0 0.00 0.00 0.00 95 1020.5
20260830093100 12 91 0.0 0.0 0.00 0.00 0.00 95 1020.6
20260830091540 12 91 0.0 0.0 0.00 0.00 0.00 95 1020.7
20260830090046 11 91 0.0 0.0 0.00 0.00 0.00 96 1020.7
20260830084516 11 91 0.0 0.0 0.00 0.00 0.00 96 1020.7
20260830083108 11 91 0.0 0.0 0.00 0.00 0.00 96 1020.7
20260830081550 11 91 0.0 0.0 0.00 0.00 0.00 96 1020.6
20260830080050 11 91 0.0 0.0 0.00 0.00 0.00 96 1020.7
20260830074553 11 91 0.0 0.0 0.00 0.00 0.00 96 1020.7
20260830073034 11 91 0.0 0.0 0.00 0.00 0.00 96 1020.8
20260830071514 11 91 0.0 0.0 0.00 0.00 0.00 96 1020.8
20260830070113 11 91 0.0 0.0 0.00 0.00 0.00 96 1020.7
20260830064600 11 91 0.0 0.0 0.00 0.00 0.00 96 1020.6
20260830063035 11 91 0.0 0.0 0.00 0.00 0.00 96 1020.7
20260830061517 11 91 0.0 0.0 0.00 0.00 0.00 96 1020.7
20260830054550 10 91 0.0 0.0 0.00 0.00 0.00 96 1020.7
20260830053055 10 91 0.0 0.0 0.00 0.00 0.00 96 1020.8
20260830051542 10 217 0.0 0.0 0.00 0.00 0.00 95 1020.8
20260830050043 10 217 0.0 0.0 0.00 0.00 0.00 95 1021.0
20260830044503 10 217 0.0 0.0 0.00 0.00 0.00 95 1021.0
20260830043004 10 217 0.0 0.0 0.00 0.00 0.00 95 1021.2
20260830041606 10 217 0.0 0.0 0.00 0.00 0.00 95 1021.0
20260830040053 10 217 0.0 0.0 0.00 0.00 0.00 94 1020.8
20260830034539 10 217 0.0 0.0 0.00 0.00 0.00 94 1020.8
20260830033000 10 217 0.0 0.0 0.00 0.00 0.00 94 1020.9
20260830031507 10 217 0.0 0.0 0.00 0.00 0.00 94 1020.9
20260830030028 10 217 0.0 0.0 0.00 0.00 0.00 94 1021.1
20260830024511 10 217 0.0 0.0 0.00 0.00 0.00 94 1021.2
20260830023111 11 217 0.0 0.0 0.00 0.00 0.00 93 1021.0
20260830021553 11 217 0.0 0.0 0.00 0.00 0.00 92 1021.1
20260830020046 11 217 0.0 0.0 0.00 0.00 0.00 92 1021.0
20260830014547 11 217 0.0 0.0 0.00 0.00 0.00 92 1021.2
20260830013044 12 217 0.0 0.0 0.00 0.00 0.00 92 1021.0
20260830011634 12 217 0.0 0.0 0.00 0.00 0.00 91 1021.0
20260830010135 12 217 0.0 0.0 0.00 0.00 0.00 91 1021.0
20260830004550 12 217 0.0 0.0 0.00 0.00 0.00 90 1020.9